Regional Weather Roundup
Issued by NWS

Home | Current Version | Previous Version | Graphics & Text | Print | Product List | Glossary On
Versions: 1 2 3 4 5 6 7 8 9 10 11 12 13 14 15 16 17 18 19 20 21 22 23 24 25 26 27 28 29 30 31 32 33 34 35 36 37 38 39 40 41 42 43 44 45 46 47 48 49 50
000
ASUS43 KIND 221359
RWRIN

WEATHER ROUNDUP FOR INDIANA
NATIONAL WEATHER SERVICE INDIANAPOLIS IN
900 AM EST MON DEC 22 2014

NOTE: "FAIR" INDICATES FEW OR NO CLOUDS BELOW 12,000 FEET WITH NO
SIGNIFICANT WEATHER AND/OR OBSTRUCTIONS TO VISIBILITY.

* - STATION DOES NOT REPORT WEATHER SUCH AS PRECIPITATION OR FOG.

+ - STATION NOT QUALITY CONTROLLED BY THE NATIONAL WEATHER SERVICE.
    USE DATA WITH CAUTION...ESPECIALLY DEWPOINT AND RELATIVE
    HUMIDITY OBSERVATIONS.

INZ001>003-010>013-019-020-221500-
NORTHWEST INDIANA

CITY           SKY/WX    TMP DP  RH WIND       PRES   REMARKS
GARY /AIRPORT/ CLOUDY    34  25  69 SE9       29.94F HAZE    WCI  26
VALPARAISO     NOT AVBL

$$

LMZ046-743>745-221500-
SOUTHERN LAKE MICHIGAN

STATION/POSITION TIME  TEMP WIND        PRES
                       AIR  DIR/SP/G
                 (UTC) (F)  (DEG/KT/KT) (MB)

$$

INZ004-005-014>016-021>024-221500-
NORTH CENTRAL INDIANA

CITY           SKY/WX    TMP DP  RH WIND       PRES   REMARKS
ELKHART        CLOUDY    28  23  80 SE8       29.99F HAZE    WCI  20
GOSHEN         CLOUDY    29  24  82 SE9       29.98F HAZE    WCI  20
SOUTH BEND     CLOUDY    30  25  81 E12       29.98F HAZE    WCI  20

$$

INZ006>009-017-018-025>027-221500-
NORTHEAST INDIANA

CITY           SKY/WX    TMP DP  RH WIND       PRES   REMARKS
ANGOLA *+      PTCLDY    25  21  86 SE8       30.00F WCI  16
FORT WAYNE     CLOUDY    27  24  89 E7        30.01F FOG     WCI  19

$$

INZ028-029-035-036-043>045-051>053-221500-
WEST CENTRAL INDIANA

CITY           SKY/WX    TMP DP  RH WIND       PRES   REMARKS
GREENCASTLE +  CLOUDY    32  27  80 SE7       29.93S WCI  26
LAFAYETTE      CLOUDY    33  28  81 E9        29.92F WCI  25
TERRE HAUTE    CLOUDY    36  30  79 SE7       29.92S

$$

INZ030>032-037>040-046>048-054>057-064-065-221500-
CENTRAL INDIANA

CITY           SKY/WX    TMP DP  RH WIND       PRES   REMARKS
COLUMBUS       CLOUDY    34  32  93 CALM      29.97F
INDIANAPOLIS   CLOUDY    33  28  81 E10       29.93F WCI  25
-EAGLE CREEK   CLOUDY    34  29  82 SE7       29.94F WCI  28
KOKOMO *+      CLOUDY    30  27  86 SE9       29.96F WCI  22
MT COMFORT *+  CLOUDY    34  27  75 SE7       29.95F WCI  28
SHELBYVILLE    CLOUDY    35  30  82 E8        29.95F WCI  29

$$

INZ033-034-041-042-049-050-058-059-221500-
EAST CENTRAL INDIANA

CITY           SKY/WX    TMP DP  RH WIND       PRES   REMARKS
MUNCIE         CLOUDY    34  28  79 SE8       29.98F WCI  27

$$

INZ060-061-067>069-081>083-085>088-221500-
SOUTHWEST INDIANA

CITY           SKY/WX    TMP DP  RH WIND       PRES   REMARKS
EVANSVILLE     CLOUDY    43  37  79 E3        29.91F
HUNTINGBURG *+ CLOUDY    41  36  81 SE9       29.92F

$$

INZ062-063-066-070>080-084-089>092-221500-
SOUTH CENTRAL AND SOUTHEAST INDIANA

CITY           SKY/WX    TMP DP  RH WIND       PRES   REMARKS
BLOOMINGTON    CLOUDY    34  30  85 SE6       29.93F WCI  29

$$




USA.gov is the U.S. government's official web portal to all federal, state and local government web resources and services.